Location: Chemnitz
(49.5500°N, 11.5830°E)
Time: 06:21:09
(UTC+01:00)

ISS - Visible Passes

Search period start: 23 November 2017 00:00
Search period end: 03 December 2017 00:00
Orbit: 402 x 407 km, 51.6° (Epoch: 23 November)

Date Brightness Start Highest point End Pass type
(mag) Time Alt. Az. Time Alt. Az. Time Alt. Az.
27 Nov -0.7 19:07:49 10° SSW 19:07:56 11° SSW 19:07:56 11° SSW visible
28 Nov -1.9 18:16:06 10° SSW 18:17:57 19° SSE 18:17:57 19° SSE visible
29 Nov -1.5 17:24:58 10° SSE 17:26:30 13° SE 17:27:52 10° ESE visible
29 Nov -1.5 18:59:12 10° SW 19:00:32 22° SW 19:00:32 22° SW visible
30 Nov -3.1 18:07:05 10° SW 18:10:08 37° SSE 18:10:23 36° SE visible
01 Dec -2.2 17:15:12 10° SSW 17:17:54 24° SE 17:20:10 13° E visible
01 Dec -2.2 18:50:49 10° WSW 18:52:49 34° WSW 18:52:49 34° WSW visible
02 Dec -3.8 17:58:28 10° WSW 18:01:44 66° SSE 18:02:33 44° E visible
02 Dec -0.3 19:35:01 10° W 19:35:12 11° W 19:35:12 11° W visible
